User: anonymous   Login
Location: Avully
(45.9633°N, 6.0228°E)
Time: 13:44:43
(UTC+00:00)
Language:

SL-16 R/B - Orbit

View from above orbital plane
View from above orbital plane
View from above satellite
View from above satellite

Ground track
Ground track

The orbit data is extracted from the following two-line orbital elements,

1 27006U 01056F   24196.21054904 -.00000008  00000-0  41999-4 0  9999
2 27006  99.6894 343.5842 0015375  98.2101  75.1337 13.71033792130571
Epoch (UTC): 14 July 2024 05:03:11
Eccentricity: 0.0015375
inclination: 99.6894°
perigee height: 984 km
apogee height: 1007 km
right ascension of ascending node: 343.5842°
argument of perigee: 98.2101°
revolutions per day: 13.71033792
mean anomaly at epoch: 75.1337°
orbit number at epoch: 13057

The dashed part of the orbit path shows where the satellite is in the earth's shadow,  

DLR